Regional Weather Roundup
Issued by NWS

Home | Current Version | Previous Version | Text Only | Print | Product List | Glossary Off
Versions: 1 2 3 4 5 6 7 8 9 10 11 12 13 14 15 16 17 18 19 20 21 22 23 24 25 26 27 28 29 30 31 32 33 34 35 36 37 38 39 40 41 42 43 44 45 46 47 48 49 50

000
ASUS43 KMPX 101701
RWRMN
WEATHER ROUNDUP FOR MINNESOTA
NATIONAL WEATHER SERVICE TWIN CITIES/CHANHASSEN MN
1100 AM CST SAT DEC 10 2016


NOTE: "FAIR" INDICATES FEW OR NO CLOUDS BELOW 12,000 FEET WITH NO
SIGNIFICANT WEATHER AND/OR OBSTRUCTIONS TO VISIBILITY. N/A MEANS
CURRENT SKY AND/OR WEATHER CONDITIONS ARE NOT AVAILABLE.

MNZ060>063-068>070-101800-
   Twin Cities Metro

CITY           SKY/WX    TMP DP  RH WIND       PRES   REMARKS
TWIN CITIES    CLOUDY     8   0  69 CALM      30.45F
ST PAUL        CLOUDY     8   0  69 VRB3      30.47F
CRYSTAL        CLOUDY     7  -1  70 SE5       30.43F WCI  -2
BLAINE         PTSUNNY    9   1  72 CALM      30.44F
LAKEVILLE      CLOUDY     7   3  85 CALM      30.43F
EDEN PRAIRIE   CLOUDY     9   2  73 CALM      30.42F
SOUTH ST PAUL  CLOUDY     9   2  73 CALM      30.46F
LAKE ELMO      FAIR       9   3  78 CALM      30.45F
$$
MNZ001>005-007-008-013>017-022>024-027-028-101800-
   Northwest Minnesota

CITY           SKY/WX    TMP DP  RH WIND       PRES   REMARKS
BEMIDJI        SUNNY     -7 -10  83 CALM      30.37F
HALLOCK        CLOUDY    -9 -15  77 CALM      30.46S
ROSEAU         CLOUDY    -6  -9  84 CALM      30.43F HAZE
WARROAD        MOSUNNY   -8 -11  84 CALM      30.42F
THIEF RVR FALL CLOUDY     1  -5  75 SE3       30.43F
CROOKSTON      SUNNY     -6 -11  77 CALM      30.45F
FOSSTON        CLOUDY    -2  -8  78 NE5       30.39F WCI -12
DETROIT LAKES    N/A     -4  -8  84 CALM      30.38F
MOORHEAD       CLOUDY    -6  -9  84 E3        30.45S
PARK RAPIDS    CLOUDY    -3  -8  79 CALM      30.35F
$$
MNZ006-009>011-018-025>026-101800-
   North Central Minnesota

CITY           SKY/WX    TMP DP  RH WIND       PRES   REMARKS
BAUDETTE       SUNNY     -5  -9  83 CALM      30.40S
FLAG ISLAND    MOSUNNY   -2  -8  78 NW5       30.41S WCI -12
INTL FALLS     SUNNY     -4  -8  83 CALM      30.39F
WASKISH        SUNNY      1  -2  85 CALM      30.39F
BIG FORK       SUNNY      0  -6  78 CALM      30.38F
LONGVILLE      CLOUDY     1  -8  66 CALM      30.38F
GRAND RAPIDS   CLOUDY     2  -6  69 NW3       30.40F
CRANE LAKE     PTSUNNY   -4  -8  84 CALM      30.42F
ORR            SUNNY     -2  -9  71 CALM      30.35F
COOK           SUNNY      0  -6  78 W3        30.38F
$$
MNZ012-019>021-037-101800-
   Northeast Minnesota

CITY           SKY/WX    TMP DP  RH WIND       PRES   REMARKS
DULUTH         CLOUDY     2  -5  72 W3        30.37F
ELY            MOSUNNY    0  -6  78 W6        30.37F WCI -12
HIBBING        MOSUNNY   -2  -8  76 W3        30.38F
EVELETH        MOSUNNY    0  -8  66 SW5       30.39F WCI -10
DULUTH HARBOR  CLOUDY     9  -2  61 CALM      30.47F
TWO HARBORS    SUNNY      7  -2  66 W6        30.39F WCI  -3
SILVER BAY     SUNNY      7  -6  56 W3        30.38F
GRAND MARAIS     N/A     11  -1  58 VRB5G17   30.42F WCI   3
G MARAIS ARPRT MOSUNNY    3  -8  60 W6        30.29F WCI  -8
$$
MNZ029>031-032-039>041-046>048-054>057-064-101800-
   West Central Minnesota

CITY           SKY/WX    TMP DP  RH WIND       PRES   REMARKS
FERGUS FALLS   CLOUDY    -6  -9  84 CALM      30.46F
WHEATON        CLOUDY     0  -6  78 SE3       30.44S
MORRIS         CLOUDY    -2  -8  78 CALM      30.39F
ALEXANDRIA     CLOUDY    -1  -5  82 SE6       30.37F WCI -13
ELBOW LAKE     FAIR      -7 -10  84 CALM      30.41F
WADENA         CLOUDY    -2  -8  78 E5        30.36F WCI -12
GLENWOOD       CLOUDY     0  -4  85 E5        30.37F WCI -10
APPLETON       CLOUDY     1  -6  71 CALM      30.42S
BENSON           N/A      1  -6  71 CALM      30.41F
ORTONVILLE     CLOUDY     0  -8  71 CALM      30.40F
MADISON        LGT SNOW   3  -2  78 CALM      30.41F
WILLMAR        FAIR       5   1  85 CALM      30.40F
$$
MNZ033>034-036-042>043-049>051-058-059-101800-
   Central Minnesota

CITY           SKY/WX    TMP DP  RH WIND       PRES   REMARKS
ST CLOUD       MOSUNNY    4  -1  80 CALM      30.42F
PAYNESVILLE    CLOUDY     4  -1  82 CALM      30.40F
AITKIN         CLOUDY     7  -4  61 CALM      30.38S
PINE RIVER     CLOUDY     1  -4  78 CALM      30.40F
BRAINERD       MOSUNNY    2  -3  80 CALM      30.38F
LONG PRAIRIE   PTSUNNY    1  -4  78 E3        30.39F
LITTLE FALLS   SUNNY      1  -6  71 CALM      30.42S
LITCHFIELD     MOSUNNY    7   1  78 CALM      30.41F
BUFFALO        MOSUNNY    7   2  81 CALM      30.44F
MAPLE LAKE     PTSUNNY    7   3  82 CALM      30.43F
HUTCHINSON     CLOUDY     7   2  79 E5        30.41F WCI  -1
$$
MNZ037-044-045-052-053-101800-
   East Central Minnesota

CITY           SKY/WX    TMP DP  RH WIND       PRES   REMARKS
PRINCETON      CLOUDY     7   1  78 CALM      30.42F
MORA           MOSUNNY    7   1  78 CALM      30.43F
CAMBRIDGE      CLOUDY     9   0  66 CALM      30.42S
RUSH CITY      CLOUDY     7   1  78 CALM      30.43F
MOOSE LAKE     CLOUDY     9  -2  61 CALM      30.39F
HINCKLEY       FAIR      10   1  67 CALM      30.40F
CLOQUET        CLOUDY     1  -6  71 CALM      30.38F
MCGREGOR       CLOUDY     5  -2  72 CALM      30.40F
$$
MNZ071>073-080-081-089-090-097-098-101800-
   Southwest Minnesota

CITY           SKY/WX    TMP DP  RH WIND       PRES   REMARKS
MONTEVIDEO     CLOUDY     3  -2  78 SE3       30.42F
GRANITE FALLS  CLOUDY     6   1  79 E3        30.43F HAZE
CANBY          LGT SNOW   4  -1  81 CALM      30.40S
MARSHALL       LGT SNOW   5   0  79 SE7       30.38F WCI  -7
REDWOOD FALLS  CLOUDY     6  -1  73 SE6       30.40F WCI  -4
OLIVIA         CLOUDY     9   3  78 E6        30.40F WCI  -1
PIPESTONE      LGT SNOW   9   5  85 SE12      30.29S VSB 1   WCI  -6
WINDOM         LGT SNOW   9   3  78 MISG      30.34F
WORTHINGTON    LGT SNOW   9   5  84 E12       30.32F FOG     WCI  -6
JACKSON        LGT SNOW   9   5  85 E10       30.33F VSB 1   WCI  -6
TRACY          LGT SNOW   7   3  84 E8        30.35F WCI  -6
$$
MNZ065>067-074>077-082>085-091>093-101800-
   South Central Minnesota

CITY           SKY/WX    TMP DP  RH WIND       PRES   REMARKS
MANKATO        FLURRIES   7   2  80 SE6       30.42F WCI  -3
NEW ULM        CLOUDY     7   0  72 SE3       30.41F
ST JAMES       LGT SNOW   7   3  85 NE6       30.41F WCI  -3
FAIRMONT       LGT SNOW   9   5  84 E8        30.38F FOG     WCI  -3
GLENCOE        CLOUDY     8   4  81 CALM      30.42F
OWATONNA       CLOUDY     9   1  72 E3        30.41F
WASECA         LGT SNOW  10   5  79 SE6       30.41F WCI   1
ALBERT LEA     LGT SNOW  12   9  85 E6        30.39F WCI   3
$$
MNZ078>079-086>088-094>096-101800-
   Southeast Minnesota

CITY           SKY/WX    TMP DP  RH WIND       PRES   REMARKS
ROCHESTER      CLOUDY     7   1  76 E3        30.41F
RED WING       CLOUDY    10   0  61 CALM      30.46F
STANTON        CLOUDY    10   3  74 CALM      30.43F
DODGE CENTER   CLOUDY     7   0  72 CALM      30.40F
WINONA           N/A     12   7  79 CALM      30.48F
AUSTIN         LGT SNOW   9   3  78 SE5       30.41F WCI   0
PRESTON        CLOUDY     8   1  73 CALM      30.42F
$$
ABBREVIATIONS USED IN REMARKS
   TC - TEMPERATURES IN CELSIUS
  WCI - WIND CHILL INDEX
   HX - HEAT INDEX
  VSB - VISIBILITY
$$




USA.gov is the U.S. government's official web portal to all federal, state and local government web resources and services.